[[{"header":{"parameterUnit":"m.s-1","parameterCategory":1,"la1":30.2991,"la2":30.254,"lo1":-89.0895,"lo2":-89.0444,"dy":0.0017,"dx":0.0017,"nx":28,"ny":28,"refTime":"2025-05-28T03:00:00:Z","depth":0,"parameterNumber":2,"parameterNumberName":"U-component_of_WINDS"},"data":[0,0,0,0,0,0,0,0,0,0,0,0,0,0,0,0,0,0,0,0,0,0,0,0,0,0,0,0,0,0,0,0,0,0,0,0,0,0,0,0,0,0,0,0,0,0,0,0,0,0,0,0,0,0,0,0,0,0,3.5653,3.5651,0,3.5536,3.5535,3.5534,3.5337,3.5333,3.533,3.5326,3.5213,3.5213,3.5214,0,0,0,0,0,0,0,0,0,0,0,0,0,3.5712,3.5712,3.5653,3.5651,3.565,3.5537,3.5535,3.5533,3.5338,3.5333,3.5329,3.5325,3.5213,3.5213,3.5214,0,0,0,0,0,0,0,0,0,0,0,0,0,3.5651,3.5712,3.5653,3.5538,3.5527,3.5537,3.5535,3.5533,3.5339,3.5333,3.5328,3.5322,3.5212,3.5213,3.5214,3.5328,0,0,3.5215,3.5216,0,0,0,0,0,0,0,0,3.5654,3.5649,3.5557,3.5546,3.5533,3.5445,3.5514,3.5464,3.534,3.541,3.5326,3.532,3.5295,3.5288,3.5279,3.5322,3.5317,3.5216,3.5216,3.5216,3.5216,0,0,0,0,0,0,0,3.5659,3.5653,3.5607,3.5556,3.5541,3.5495,3.548,3.5504,3.5385,3.5404,3.5389,3.5378,3.5288,3.5279,3.5275,3.5316,3.5215,3.5216,3.5216,3.5217,3.5448,3.5453,0,0,0,0,0,0,3.5679,3.5657,3.561,3.5603,3.5581,3.5499,3.5482,3.5479,3.5384,3.5364,3.5383,3.5369,3.528,3.5274,3.527,3.5395,3.5216,3.5217,3.5217,3.5442,3.5449,3.5455,0,0,0,0,0,0,3.5681,3.5677,3.5615,3.5626,3.5615,3.5503,3.5502,3.548,3.547,3.5368,3.5347,3.5395,3.5276,3.5269,3.5314,3.5388,3.5217,3.5218,3.5435,3.5444,3.5452,3.5648,0,0,0,0,0,0,3.5684,3.5679,3.5719,3.5629,3.5615,3.5659,3.5507,3.5482,3.5471,3.5453,3.5374,3.5356,3.5271,3.5315,3.5315,3.5386,3.5218,3.5428,3.5439,3.5449,3.5634,3.5662,3.5686,0,0,0,0,0,3.5686,3.578,3.5722,3.5717,3.5662,3.5664,3.5656,3.5555,3.5478,3.5518,3.5454,3.5358,3.5382,3.5321,3.532,3.5392,3.5423,3.5436,3.5448,3.5623,3.5657,3.5686,0,0,0,0,0,0,3.5882,3.5765,3.57,3.5766,3.5727,3.5631,3.5677,3.5595,3.5577,3.556,3.5438,3.5423,3.5483,3.5443,3.5377,3.5498,3.5388,3.5401,3.5521,3.5552,3.5578,3.5583,3.5218,0,0,0,0,0,3.5933,3.5942,3.5841,3.5909,3.5893,3.579,3.5787,3.5713,3.5667,3.565,3.5587,3.5549,3.5547,3.5549,3.5542,3.5631,3.561,3.568,3.5707,3.5728,3.5739,3.5783,3.5812,3.5498,3.5498,3.5497,0,0,3.6037,3.5975,3.5988,3.5947,3.5907,3.5921,3.5776,3.5797,3.5806,3.5653,3.5689,3.5645,3.5594,3.5661,3.5688,3.5629,3.5823,3.5745,3.5763,3.5762,3.5799,3.5829,3.5855,3.5507,3.5505,3.5504,0,0,3.6233,3.6189,3.6239,3.6203,3.6145,3.6077,3.609,3.6008,3.5971,3.6007,3.5892,3.5905,3.5905,3.5872,3.5856,3.6047,3.5958,3.6049,3.6182,3.6226,3.6251,3.6272,3.6337,3.6362,3.6062,3.6063,3.6063,0,3.637,3.6383,3.6277,3.6304,3.6289,3.6153,3.6204,3.6176,3.612,3.6114,3.605,3.6048,3.6005,3.6062,3.6108,3.6102,3.6112,3.6054,3.6256,3.6276,3.6294,3.6355,3.638,3.6074,3.6072,3.6071,3.607,0,3.6554,3.6566,3.6615,3.6562,3.6555,3.6595,3.6496,3.6502,3.6431,3.6371,3.6411,3.6355,3.6333,3.6343,3.6275,3.6392,3.6357,3.6278,3.6162,3.6337,3.6391,3.6414,3.6089,3.6085,3.6082,3.6079,0,0,3.6862,3.6753,3.6772,3.6747,3.6676,3.6683,3.6721,3.6698,3.6705,3.6674,3.67,3.6706,3.6632,3.6614,3.6542,3.6582,3.6734,3.6496,3.6493,3.6539,3.6857,3.6913,3.6942,3.6678,3.6682,3.6685,3.686,0,3.7039,3.7089,3.6997,3.707,3.708,3.6954,3.6986,3.6947,3.6894,3.6897,3.6839,3.6843,3.6747,3.6735,3.6769,3.6708,3.6795,3.6695,3.67,3.6701,3.671,3.6971,3.703,3.7197,3.6881,3.6885,3.6887,0,3.7249,3.7226,3.7301,3.7226,3.7227,3.7256,3.723,3.7235,3.719,3.7149,3.7132,3.7048,3.708,3.6976,3.7018,3.6952,3.6951,3.6922,3.6926,3.6917,3.68,3.6965,3.7248,3.7271,3.6921,3.6918,3.6915,0,3.746,3.745,3.7492,3.7476,3.7392,3.7415,3.7382,3.7332,3.7326,3.7305,3.73,3.7285,3.7275,3.7267,3.7182,3.7114,3.7235,3.7123,3.7201,3.7203,3.7226,3.7224,3.7508,3.7236,3.7235,3.7235,3.7234,0,3.7663,3.7713,3.7586,3.7612,3.7665,3.7561,3.7617,3.7572,3.753,3.7545,3.744,3.7458,3.7347,3.7354,3.729,3.7334,3.7332,3.73,3.728,3.7305,3.7309,3.7297,3.7281,3.7241,3.724,3.7239,3.7238,0,3.7904,3.7822,3.7859,3.7778,3.776,3.7802,3.7733,3.7755,3.7698,3.772,3.7719,3.7629,3.7632,3.7549,3.7536,3.7493,3.7565,3.7528,3.7578,3.7564,3.7645,3.7637,3.7925,3.7957,3.7671,3.7674,3.7677,0,3.8035,3.807,3.7994,3.7996,3.7967,3.7974,3.7967,3.787,3.7868,3.7822,3.785,3.7845,3.7833,3.7846,3.778,3.7771,3.7729,3.7832,3.7727,3.7751,3.7725,3.7722,3.7724,3.7852,3.7855,3.7858,3.7861,0,3.8276,3.8234,3.8227,3.8208,3.8203,3.8184,3.8158,3.8167,3.8061,3.8065,3.8066,3.8059,3.8046,3.8042,3.8021,3.7988,3.7907,3.7896,3.7912,3.7934,3.796,3.7943,3.7632,3.7887,3.7885,3.7883,3.7881,3.788,3.8461,3.8486,3.8437,3.8434,3.8405,3.8384,3.8399,3.8346,3.8344,3.8324,3.827,3.8281,3.8239,3.8202,3.8179,3.8187,3.8136,3.8161,3.8166,3.8173,3.8186,3.7965,3.8184,3.8183,3.8182,3.8181,3.8181,0,3.8692,3.8655,3.8654,3.862,3.8619,3.8546,3.8514,3.8518,3.8528,3.8496,3.8489,3.8492,3.8489,3.8426,3.8416,3.8435,3.8398,3.8435,3.8429,3.8423,3.8234,3.8218,3.8465,3.8465,3.8465,3.8465,3.8465,3.8465,3.881,3.8848,3.8802,3.8826,3.879,3.8798,3.8786,3.8767,3.8741,3.8748,3.8745,3.8705,3.8661,3.8647,3.8642,3.8624,3.8623,3.8672,3.8642,3.8464,3.8436,3.841,3.8394,3.8675,3.8675,3.8829,3.883,3.8832]},{"header":{"parameterUnit":"m.s-1","parameterCategory":1,"la1":30.2991,"la2":30.254,"lo1":-89.0895,"lo2":-89.0444,"dy":0.0017,"dx":0.0017,"nx":28,"ny":28,"refTime":"2025-05-28T03:00:00:Z","depth":0,"parameterNumber":3,"parameterNumberName":"V-component_of_WINDS"},"data":[0,0,0,0,0,0,0,0,0,0,0,0,0,0,0,0,0,0,0,0,0,0,0,0,0,0,0,0,0,0,0,0,0,0,0,0,0,0,0,0,0,0,0,0,0,0,0,0,0,0,0,0,0,0,0,0,0,0,1.5835,1.5838,0,1.609,1.6093,1.6096,1.6138,1.6136,1.6133,1.6131,1.6393,1.6402,1.6411,0,0,0,0,0,0,0,0,0,0,0,0,0,1.5385,1.5393,1.5835,1.5838,1.5841,1.609,1.6093,1.6097,1.6138,1.6135,1.6133,1.613,1.639,1.6401,1.6411,0,0,0,0,0,0,0,0,0,0,0,0,0,1.5605,1.5396,1.5834,1.5892,1.59,1.6089,1.6093,1.6098,1.6139,1.6135,1.6132,1.6129,1.6386,1.64,1.6413,1.6563,0,0,1.6454,1.646,0,0,0,0,0,0,0,0,1.5592,1.5621,1.588,1.5888,1.5897,1.6079,1.6031,1.6254,1.614,1.6048,1.6131,1.6127,1.6291,1.6312,1.6367,1.6575,1.6586,1.6456,1.6464,1.647,1.6473,0,0,0,0,0,0,0,1.5577,1.561,1.5936,1.5884,1.5894,1.5906,1.5933,1.6073,1.6185,1.6056,1.6059,1.6089,1.6295,1.6354,1.6374,1.659,1.6455,1.6467,1.6476,1.6481,1.6935,1.6938,0,0,0,0,0,0,1.5551,1.5597,1.5928,1.5944,1.5733,1.5916,1.5947,1.6024,1.6184,1.6205,1.6091,1.609,1.6333,1.6358,1.6383,1.657,1.6469,1.6482,1.649,1.6931,1.6935,1.694,0,0,0,0,0,0,1.5541,1.558,1.5917,1.5772,1.5815,1.5928,1.6013,1.6031,1.609,1.6211,1.6231,1.6131,1.6331,1.6364,1.6518,1.6579,1.6488,1.6501,1.6926,1.6932,1.6938,1.6943,0,0,0,0,0,0,1.5528,1.5576,1.5634,1.5773,1.5823,1.6048,1.6017,1.6038,1.6113,1.6113,1.6253,1.6273,1.6331,1.6498,1.6532,1.6596,1.6511,1.6921,1.6929,1.6936,1.6937,1.6948,1.6957,0,0,0,0,0,1.5512,1.5625,1.5637,1.5676,1.5897,1.6051,1.608,1.6144,1.6118,1.6177,1.6255,1.6269,1.6567,1.6513,1.6552,1.6621,1.6917,1.6927,1.6935,1.6933,1.6946,1.6957,0,0,0,0,0,0,1.5491,1.5644,1.5659,1.582,1.5922,1.6058,1.6134,1.6155,1.6267,1.6263,1.6338,1.6369,1.6519,1.6586,1.6523,1.6775,1.674,1.6757,1.6726,1.6739,1.6748,1.6729,1.6522,0,0,0,0,0,1.5505,1.5616,1.5745,1.5875,1.5925,1.6021,1.609,1.6131,1.624,1.6283,1.6372,1.6477,1.6595,1.6671,1.6786,1.6948,1.6979,1.7015,1.7024,1.7032,1.7045,1.7136,1.7154,1.6969,1.6969,1.6968,0,0,1.5535,1.5633,1.5699,1.5873,1.5957,1.6071,1.6057,1.6178,1.6264,1.6302,1.6452,1.6521,1.6644,1.6803,1.6877,1.6863,1.7103,1.7043,1.7048,1.7058,1.7147,1.7164,1.718,1.6975,1.6974,1.6973,0,0,1.5648,1.5734,1.5851,1.5936,1.6063,1.6126,1.6154,1.6288,1.6335,1.6487,1.6518,1.6622,1.6822,1.6908,1.6978,1.7126,1.7143,1.7161,1.7212,1.73,1.7314,1.7327,1.738,1.7398,1.7175,1.7175,1.7175,0,1.567,1.5843,1.5909,1.603,1.6106,1.6146,1.6266,1.6345,1.6503,1.6555,1.6537,1.679,1.6876,1.7055,1.7091,1.7147,1.7181,1.7145,1.7307,1.7321,1.7334,1.7385,1.7404,1.7176,1.7176,1.7176,1.7176,0,1.5863,1.5983,1.6063,1.6214,1.63,1.6419,1.6504,1.6583,1.6617,1.6682,1.6837,1.6941,1.7077,1.7123,1.7157,1.7308,1.7296,1.7291,1.7258,1.7352,1.7401,1.7421,1.7178,1.7177,1.7177,1.7177,0,0,1.5968,1.6156,1.6185,1.6254,1.6398,1.6492,1.6614,1.6748,1.6814,1.6922,1.7026,1.7196,1.7193,1.7273,1.7317,1.7394,1.7505,1.7381,1.7385,1.74,1.7677,1.7679,1.77,1.7517,1.7521,1.7525,1.7667,0,1.6098,1.6316,1.638,1.6564,1.6676,1.6716,1.6822,1.6922,1.6987,1.7091,1.7163,1.7282,1.7269,1.7318,1.7396,1.7474,1.7561,1.7465,1.7615,1.7619,1.7582,1.7726,1.7728,1.7857,1.7686,1.769,1.7692,0,1.6278,1.639,1.6584,1.6715,1.6764,1.6859,1.6987,1.7086,1.7201,1.7243,1.7332,1.737,1.7499,1.746,1.7639,1.7572,1.7638,1.7685,1.7692,1.7708,1.7661,1.7745,1.79,1.7919,1.7723,1.7721,1.7718,0,1.6335,1.6534,1.6677,1.6735,1.6891,1.6957,1.7025,1.7136,1.7213,1.7325,1.7376,1.7502,1.7571,1.7667,1.7738,1.7703,1.7912,1.7878,1.795,1.7948,1.7991,1.7987,1.8158,1.8034,1.8034,1.8033,1.8033,0,1.6473,1.659,1.6704,1.6792,1.6925,1.6998,1.7128,1.7198,1.7297,1.7399,1.7442,1.7537,1.7626,1.7733,1.779,1.7929,1.796,1.7998,1.8011,1.7994,1.7989,1.8037,1.8029,1.8039,1.8038,1.8037,1.8036,0,1.6558,1.6639,1.6797,1.6932,1.6969,1.7061,1.7177,1.7264,1.733,1.7459,1.7494,1.7598,1.7727,1.7807,1.797,1.8008,1.8162,1.8173,1.8123,1.8129,1.8197,1.8189,1.8404,1.8436,1.829,1.8292,1.8293,0,1.664,1.6731,1.6876,1.6948,1.7017,1.7131,1.721,1.7286,1.7366,1.7505,1.7575,1.7706,1.7815,1.8018,1.8108,1.8234,1.8247,1.8314,1.8266,1.8246,1.8248,1.8242,1.8251,1.8321,1.8323,1.8324,1.8325,0,1.6777,1.6813,1.6924,1.7051,1.7143,1.7246,1.7349,1.7405,1.7499,1.7587,1.7719,1.7804,1.797,1.81,1.8234,1.8304,1.833,1.8339,1.8362,1.8345,1.8312,1.8331,1.8144,1.8334,1.8333,1.8332,1.8331,1.8331,1.6863,1.6947,1.7062,1.7185,1.727,1.7366,1.7454,1.7532,1.7643,1.7785,1.7824,1.7961,1.8075,1.8257,1.833,1.8439,1.843,1.8464,1.8473,1.848,1.8481,1.8295,1.8464,1.8464,1.8464,1.8464,1.8464,0,1.7002,1.7078,1.7191,1.7334,1.7431,1.7448,1.7563,1.7643,1.7763,1.7867,1.7974,1.8126,1.8252,1.8353,1.8483,1.8551,1.8566,1.8583,1.8578,1.8594,1.8481,1.8448,1.8568,1.8568,1.8568,1.8568,1.8568,1.8568,1.7086,1.7227,1.7277,1.7462,1.7538,1.7674,1.7738,1.7827,1.791,1.8077,1.8183,1.8248,1.8351,1.8489,1.8606,1.8632,1.8678,1.8692,1.8721,1.8613,1.8602,1.8591,1.856,1.8701,1.8702,1.8824,1.8825,1.8826]}]]